Grayling, MI

5:19 PM EDT on September 24, 2016 (GMT -0400)
Grayling

Weather History for KGOV - May, 2014

Change the Weather History Date:

Sunday, May 25, 2014

  Actual Average (KHTL) Record (KHTL)
Temperature  
Mean Temperature 60 °F 57 °F  
Max Temperature 82 °F 69 °F 87 °F (1933)
Min Temperature 39 °F 44 °F 23 °F (1949)
Degree Days  
Heating Degree Days 4 9  
Month to date heating degree days 309  
Since 1 July heating degree days 7970  
Cooling Degree Days 0 1  
Month to date cooling degree days 6  
Year to date cooling degree days 8  
Growing Degree Days 10 (Base 50)    
Moisture  
Dew Point 40 °F    
Average Humidity 53    
Maximum Humidity 97    
Minimum Humidity 18    
Precipitation  
Precipitation 0.00 in 0.10 in 2.45 in (2016)
Month to date precipitation 2.23  
Year to date precipitation 9.27  
Sea Level Pressure  
Sea Level Pressure 30.10 in    
Wind  
Wind Speed 2 mph (WSW)    
Max Wind Speed 13 mph    
Max Gust Speed 17 mph    
Visibility 10 miles    
Events      
T = Trace of Precipitation, MM = Missing Value Source: NWS Daily Summary

Daily Weather History Graph

Daily Weather History Graph

Search for Another Location

Airport or City:

Trip Planner

Search our weather history database for the weather conditions in past years. The results will help you decide how hot, cold, wet, or windy it might be!

Date:

Astronomy

May. 25, 2014 Rise Set
Actual Time 6:01 AM EDT 9:10 PM EDT
Civil Twilight 5:26 AM EDT 9:46 PM EDT
Nautical Twilight 4:40 AM EDT 10:31 PM EDT
Astronomical Twilight 3:45 AM EDT 11:27 PM EDT
Moon 4:14 AM EDT (5/25) 6:03 PM EDT (5/25)
Length of Visible Light 16h 20m
Length of Day
15h 09m
Waning Crescent, 10% of the Moon is Illuminated
May 25
Waning Crescent
May 28
New
Jun 5
First Quarter
Jun 13
Full
Jun 19
Last Quarter

Hourly Weather History & Observations

Time (EDT) Temp. Dew Point Humidity Pressure Visibility Wind Dir Wind Speed Gust Speed Precip Events Conditions
12:15 AM 47.7 °F 41.9 °F 80% 30.15 in 10.0 mi Calm Calm - N/A   Clear
12:36 AM 47.7 °F 42.1 °F 81% 30.15 in 7.0 mi Calm Calm - N/A   Clear
12:55 AM 47.7 °F 43.3 °F 85% 30.15 in 10.0 mi Calm Calm - N/A   Clear
1:16 AM 47.3 °F 44.4 °F 90% 30.14 in 10.0 mi Calm Calm - N/A   Clear
1:36 AM 44.8 °F 42.1 °F 90% 30.14 in 10.0 mi Calm Calm - N/A   Clear
2:16 AM 43.7 °F 40.3 °F 88% 30.14 in 10.0 mi Calm Calm - N/A   Clear
2:36 AM 45.1 °F 43.3 °F 93% 30.14 in 10.0 mi Calm Calm - N/A   Clear
2:55 AM 43.0 °F 41.0 °F 93% 30.14 in 10.0 mi Calm Calm - N/A   Clear
3:16 AM 41.5 °F 40.1 °F 95% 30.14 in 10.0 mi Calm Calm - N/A   Clear
3:35 AM 42.8 °F 41.2 °F 94% 30.14 in 10.0 mi Calm Calm - N/A   Clear
3:56 AM 41.9 °F 39.6 °F 91% 30.14 in 10.0 mi Calm Calm - N/A   Clear
4:16 AM 41.2 °F 40.1 °F 96% 30.14 in 10.0 mi Calm Calm - N/A   Clear
4:35 AM 41.2 °F 40.3 °F 97% 30.14 in 10.0 mi Calm Calm - N/A   Clear
4:56 AM 40.1 °F 38.7 °F 95% 30.15 in 10.0 mi Calm Calm - N/A   Clear
5:16 AM 42.1 °F 40.6 °F 95% 30.15 in 10.0 mi Calm Calm - N/A   Clear
5:35 AM 40.5 °F 39.7 °F 97% 30.16 in 10.0 mi Calm Calm - N/A   Clear
5:56 AM 40.1 °F 39.2 °F 97% 30.16 in 10.0 mi Calm Calm - N/A   Clear
6:15 AM 39.0 °F 38.1 °F 97% 30.16 in 10.0 mi Calm Calm - N/A   Clear
6:36 AM 40.8 °F 39.4 °F 95% 30.16 in 10.0 mi Calm Calm - N/A   Clear
6:56 AM 42.6 °F 41.4 °F 95% 30.16 in 10.0 mi Calm Calm - N/A   Clear
7:16 AM 47.7 °F 44.4 °F 89% 30.16 in 10.0 mi Calm Calm - N/A   Clear
7:35 AM 48.2 °F 44.2 °F 86% 30.16 in 10.0 mi Calm Calm - N/A   Clear
7:56 AM 52.7 °F 48.2 °F 85% 30.17 in 10.0 mi Calm Calm - N/A   Clear
8:16 AM 57.7 °F 42.4 °F 57% - 10.0 mi WSW 3.5 mph - N/A   Clear
8:35 AM 60.6 °F 40.8 °F 48% 30.16 in 10.0 mi WSW 5.8 mph - N/A   Clear
8:56 AM 63.0 °F 40.8 °F 44% 30.16 in 10.0 mi West 8.1 mph - N/A   Clear
9:16 AM 65.5 °F 42.6 °F 43% 30.16 in 10.0 mi WSW 8.1 mph - N/A   Clear
9:35 AM 68.0 °F 41.0 °F 37% 30.16 in 10.0 mi WSW 8.1 mph - N/A   Clear
9:56 AM 68.0 °F 39.0 °F 35% 30.15 in 10.0 mi SW 6.9 mph - N/A   Clear
10:16 AM 70.3 °F 40.1 °F 33% 30.15 in 10.0 mi WSW 8.1 mph - N/A   Clear
11:16 AM 72.9 °F 37.9 °F 28% 30.14 in 10.0 mi SW 6.9 mph - N/A   Clear
11:35 AM 73.6 °F 38.7 °F 28% 30.14 in 10.0 mi WSW 3.5 mph - N/A   Clear
11:56 AM 75.4 °F 37.8 °F 26% 30.13 in 10.0 mi SSW 6.9 mph - N/A   Clear
12:15 PM 75.4 °F 36.7 °F 25% 30.13 in 10.0 mi West 6.9 mph - N/A   Clear
12:36 PM 77.2 °F 37.8 °F 24% 30.12 in 10.0 mi WSW 8.1 mph - N/A   Clear
12:56 PM 78.1 °F 36.1 °F 22% 30.12 in 10.0 mi West 5.8 mph - N/A   Clear
1:15 PM 78.1 °F 36.7 °F 22% 30.12 in 10.0 mi West 6.9 mph - N/A   Clear
1:36 PM 79.0 °F 36.9 °F 22% 30.11 in 10.0 mi West 8.1 mph - N/A   Clear
1:55 PM 78.6 °F 37.2 °F 23% 30.11 in 10.0 mi Calm Calm - N/A   Clear
2:16 PM 80.2 °F 38.5 °F 22% 30.10 in 10.0 mi WNW 8.1 mph - N/A   Clear
2:36 PM 80.6 °F 38.1 °F 22% 30.09 in 10.0 mi SW 5.8 mph - N/A   Clear
2:55 PM 80.6 °F 37.2 °F 21% 30.09 in 10.0 mi SW 4.6 mph - N/A   Clear
3:16 PM 81.5 °F 37.2 °F 20% 30.08 in 10.0 mi WNW 5.8 mph - N/A   Clear
3:36 PM 81.0 °F 35.6 °F 20% 30.08 in 10.0 mi WSW 5.8 mph - N/A   Clear
3:55 PM 82.0 °F 35.8 °F 19% 30.07 in 10.0 mi SW 3.5 mph - N/A   Clear
4:16 PM 81.9 °F 33.8 °F 18% 30.06 in 10.0 mi WSW 12.7 mph - N/A   Clear
4:36 PM 81.7 °F 33.8 °F 18% 30.06 in 10.0 mi SSW 8.1 mph 16.1 mph N/A   Clear
4:55 PM 81.7 °F 34.0 °F 18% 30.05 in 10.0 mi WSW 6.9 mph - N/A   Clear
5:36 PM 81.5 °F 33.4 °F 18% 30.04 in 10.0 mi WSW 4.6 mph - N/A   Clear
5:55 PM 81.7 °F 34.3 °F 18% 30.04 in 10.0 mi WSW 10.4 mph - N/A   Clear
6:16 PM 81.3 °F 33.6 °F 18% 30.04 in 10.0 mi West 6.9 mph 17.3 mph N/A   Clear
6:35 PM 80.6 °F 32.9 °F 18% 30.04 in 10.0 mi WSW 8.1 mph - N/A   Clear
6:56 PM 80.1 °F 38.3 °F 22% 30.04 in 10.0 mi WNW 12.7 mph - N/A   Clear
7:16 PM 77.9 °F 38.1 °F 24% 30.04 in 10.0 mi WNW 9.2 mph - N/A   Clear
7:35 PM 77.9 °F 39.6 °F 25% 30.04 in 10.0 mi WNW 9.2 mph - N/A   Clear
7:56 PM 77.5 °F 40.5 °F 26% 30.04 in 10.0 mi WNW 8.1 mph - N/A   Clear
8:16 PM 75.4 °F 39.9 °F 28% 30.04 in 10.0 mi West 6.9 mph - N/A   Clear
8:35 PM 75.4 °F 40.1 °F 28% 30.03 in 10.0 mi West 4.6 mph - N/A   Clear
8:56 PM 72.9 °F 39.9 °F 30% 30.03 in 10.0 mi Calm Calm - N/A   Clear
9:16 PM 68.0 °F 44.1 °F 42% 30.04 in 7.0 mi Calm Calm - N/A   Clear
9:35 PM 65.5 °F 43.9 °F 46% 30.04 in 10.0 mi Calm Calm - N/A   Clear
9:56 PM 62.4 °F 44.8 °F 52% 30.05 in 10.0 mi SW 3.5 mph - N/A   Clear
10:16 PM 59.0 °F 45.7 °F 61% 30.05 in 10.0 mi WNW 3.5 mph - N/A   Clear
10:35 PM 58.3 °F 46.0 °F 64% 30.05 in 10.0 mi Calm Calm - N/A   Clear
10:56 PM 58.3 °F 45.0 °F 61% 30.05 in 10.0 mi WSW 3.5 mph - N/A   Clear
11:16 PM 57.7 °F 44.6 °F 62% 30.05 in 10.0 mi Calm Calm - N/A   Clear
11:36 PM 55.4 °F 45.5 °F 69% 30.05 in 10.0 mi Calm Calm - N/A   Clear
11:56 PM 54.5 °F 45.9 °F 73% 30.04 in 10.0 mi Calm Calm - N/A   Clear